SDM6476 UNKL-ULLI

Flight info

Callsign SDM6476
Flight time 5h 8m
Altitude 34000
Route BASEL B938 SURIP T631 NWK M59 SORLI P989 NETLU T756 ODNUS L870 ADLIN T242 AMDEN P979 BEPOL
Aircraft A320/M-SDE3FGHIRWY/LB1

Departure

Time 2026-05-04 04:01
Airport Krasnoyarsk International Airport (UNKL)

Arrival

Time 2026-05-04 09:10
Airport Pulkovo Airport (ULLI)
Time Latitude Longitude Altitude Speed Heading
2026-05-04 03:34 56.17977 92.48437 957 ft 0 kts 24°
2026-05-04 03:48 56.17972 92.48432 955 ft 2 kts 25°
2026-05-04 03:48 56.17957 92.48420 953 ft 2 kts 27°
2026-05-04 03:49 56.17943 92.48406 954 ft 2 kts 30°
2026-05-04 03:49 56.17929 92.48391 955 ft 2 kts 34°
2026-05-04 03:49 56.17915 92.48374 952 ft 2 kts 44°
2026-05-04 03:49 56.17904 92.48351 952 ft 2 kts 73°
2026-05-04 03:50 56.17904 92.48324 952 ft 1 kts 116°
2026-05-04 03:50 56.17905 92.48320 953 ft 0 kts 118°
2026-05-04 03:52 56.17903 92.48327 953 ft 1 kts 118°
2026-05-04 03:52 56.17896 92.48354 957 ft 4 kts 112°
2026-05-04 03:53 56.17884 92.48417 957 ft 6 kts 109°
2026-05-04 03:53 56.17866 92.48457 956 ft 3 kts 155°
2026-05-04 03:53 56.17840 92.48457 955 ft 6 kts 188°
2026-05-04 03:53 56.17805 92.48435 955 ft 5 kts 201°
2026-05-04 03:54 56.17772 92.48412 955 ft 6 kts 201°
2026-05-04 03:54 56.17738 92.48436 955 ft 6 kts 140°
2026-05-04 03:54 56.17712 92.48521 954 ft 10 kts 113°
2026-05-04 03:54 56.17675 92.48680 956 ft 17 kts 112°
2026-05-04 03:55 56.17620 92.48909 956 ft 23 kts 113°
2026-05-04 03:55 56.17554 92.49191 953 ft 24 kts 113°
2026-05-04 03:55 56.17494 92.49448 956 ft 21 kts 113°
2026-05-04 03:55 56.17439 92.49677 955 ft 19 kts 113°
2026-05-04 03:56 56.17391 92.49878 957 ft 16 kts 113°
2026-05-04 03:56 56.17341 92.50086 955 ft 21 kts 113°
2026-05-04 03:56 56.17289 92.50309 955 ft 18 kts 113°
2026-05-04 03:56 56.17239 92.50516 955 ft 20 kts 113°
2026-05-04 03:57 56.17179 92.50768 955 ft 22 kts 113°
2026-05-04 03:57 56.17124 92.51002 955 ft 19 kts 113°
2026-05-04 03:57 56.17074 92.51210 955 ft 18 kts 113°
2026-05-04 03:57 56.17017 92.51447 957 ft 22 kts 113°
2026-05-04 03:58 56.16911 92.51892 954 ft 16 kts 113°
2026-05-04 03:58 56.16877 92.51995 954 ft 8 kts 144°
2026-05-04 03:58 56.16831 92.52016 953 ft 6 kts 173°
2026-05-04 03:59 56.16828 92.52017 953 ft 0 kts 173°
2026-05-04 03:59 56.16825 92.52017 954 ft 3 kts 173°
2026-05-04 03:59 56.16779 92.52028 954 ft 10 kts 173°
2026-05-04 03:59 56.16702 92.52043 953 ft 11 kts 178°
2026-05-04 04:00 56.16669 92.51966 955 ft 9 kts 282°
2026-05-04 04:00 56.16678 92.51923 955 ft 0 kts 292°
2026-05-04 04:00 56.16702 92.51821 955 ft 35 kts 292°
2026-05-04 04:01 56.16887 92.51039 956 ft 98 kts 293°
2026-05-04 04:01 56.17225 92.49618 954 ft 148 kts 293°
2026-05-04 04:01 56.17669 92.47726 1147 ft 172 kts 292°
2026-05-04 04:01 56.18135 92.45771 1871 ft 169 kts 291°
2026-05-04 04:02 56.18596 92.43844 2603 ft 171 kts 291°
2026-05-04 04:02 56.19064 92.41802 3045 ft 183 kts 291°
2026-05-04 04:02 56.19560 92.39595 3341 ft 202 kts 291°
2026-05-04 04:02 56.20143 92.37161 3689 ft 222 kts 292°
2026-05-04 04:03 56.20778 92.34522 4252 ft 235 kts 293°
2026-05-04 04:03 56.21424 92.31814 5075 ft 237 kts 295°
2026-05-04 04:03 56.22443 92.29528 5926 ft 240 kts 324°
2026-05-04 04:03 56.23890 92.28149 6834 ft 239 kts 328°
2026-05-04 04:04 56.25385 92.26819 7560 ft 242 kts 329°
2026-05-04 04:04 56.26941 92.25512 8186 ft 249 kts 330°
2026-05-04 04:04 56.28534 92.24136 8914 ft 252 kts 328°
2026-05-04 04:04 56.30104 92.22701 9652 ft 255 kts 327°
2026-05-04 04:05 56.31658 92.21219 10300 ft 259 kts 326°
2026-05-04 04:05 56.33290 92.19635 10678 ft 273 kts 326°
2026-05-04 04:05 56.35004 92.17971 11069 ft 287 kts 327°
2026-05-04 04:05 56.36796 92.16239 11520 ft 298 kts 327°
2026-05-04 04:06 56.38654 92.14455 12003 ft 307 kts 327°
2026-05-04 04:06 56.40551 92.12589 12576 ft 312 kts 325°
2026-05-04 04:06 56.42416 92.10552 13210 ft 315 kts 324°
2026-05-04 04:06 56.44276 92.08414 13847 ft 318 kts 323°
2026-05-04 04:07 56.46146 92.06248 14444 ft 320 kts 323°
2026-05-04 04:07 56.48026 92.04075 15066 ft 322 kts 324°
2026-05-04 04:07 56.49917 92.01895 15709 ft 322 kts 324°
2026-05-04 04:07 56.51810 91.99717 16367 ft 322 kts 324°
2026-05-04 04:08 56.53678 91.97575 17030 ft 322 kts 324°
2026-05-04 04:08 56.55595 91.95382 17662 ft 323 kts 324°
2026-05-04 04:08 56.57488 91.93219 18147 ft 328 kts 325°
2026-05-04 04:08 56.59430 91.91004 18601 ft 332 kts 325°
2026-05-04 04:09 56.61391 91.88769 19068 ft 334 kts 325°
2026-05-04 04:09 56.63367 91.86496 19577 ft 336 kts 324°
2026-05-04 04:09 56.65277 91.84056 20093 ft 337 kts 322°
2026-05-04 04:09 56.67169 91.81496 20512 ft 341 kts 322°
2026-05-04 04:10 56.69098 91.78937 20971 ft 344 kts 323°
2026-05-04 04:10 56.71064 91.76424 21451 ft 347 kts 324°
2026-05-04 04:10 56.73067 91.73950 21932 ft 349 kts 325°
2026-05-04 04:10 56.75095 91.71508 22403 ft 351 kts 325°
2026-05-04 04:11 56.77103 91.68968 22848 ft 353 kts 323°
2026-05-04 04:11 56.79086 91.66298 23291 ft 355 kts 322°
2026-05-04 04:11 56.81052 91.63556 23692 ft 357 kts 322°
2026-05-04 04:11 56.83022 91.60775 24034 ft 359 kts 322°
2026-05-04 04:12 56.85009 91.57970 24350 ft 362 kts 322°
2026-05-04 04:12 56.87014 91.55157 24667 ft 364 kts 322°
2026-05-04 04:12 56.89035 91.52338 24971 ft 367 kts 322°
2026-05-04 04:12 56.91072 91.49501 25270 ft 369 kts 322°
2026-05-04 04:13 56.93099 91.46681 25552 ft 372 kts 322°
2026-05-04 04:13 56.95163 91.43803 25838 ft 374 kts 321°
2026-05-04 04:13 56.97068 91.40542 26124 ft 376 kts 311°
2026-05-04 04:13 56.98661 91.36726 26408 ft 379 kts 306°
2026-05-04 04:14 57.00190 91.32776 26691 ft 381 kts 306°
2026-05-04 04:14 57.01727 91.28802 26975 ft 383 kts 306°
2026-05-04 04:14 57.03274 91.24801 27248 ft 385 kts 306°
2026-05-04 04:14 57.04832 91.20764 27523 ft 387 kts 306°
2026-05-04 04:15 57.06391 91.16721 27794 ft 389 kts 305°
2026-05-04 04:15 57.07962 91.12642 28056 ft 391 kts 305°
2026-05-04 04:15 57.09538 91.08550 28324 ft 393 kts 305°
2026-05-04 04:15 57.11120 91.04434 28570 ft 395 kts 305°
2026-05-04 04:16 57.12712 91.00287 28813 ft 397 kts 305°
2026-05-04 04:16 57.14307 90.96118 29059 ft 399 kts 304°
2026-05-04 04:16 57.15909 90.91925 29290 ft 401 kts 304°
2026-05-04 04:16 57.17513 90.87715 29520 ft 402 kts 304°
2026-05-04 04:17 57.19101 90.83539 29728 ft 404 kts 304°
2026-05-04 04:17 57.20714 90.79279 29953 ft 406 kts 304°
2026-05-04 04:17 57.22333 90.75005 30142 ft 407 kts 304°
2026-05-04 04:17 57.23959 90.70719 30353 ft 407 kts 304°
2026-05-04 04:18 57.25584 90.66437 30585 ft 407 kts 304°
2026-05-04 04:18 57.27207 90.62154 30807 ft 407 kts 304°
2026-05-04 04:18 57.28830 90.57855 31024 ft 408 kts 304°
2026-05-04 04:18 57.30448 90.53548 31244 ft 408 kts 304°
2026-05-04 04:19 57.32062 90.49230 31457 ft 408 kts 303°
2026-05-04 04:19 57.33677 90.44909 31678 ft 408 kts 303°
2026-05-04 04:19 57.35293 90.40586 31888 ft 409 kts 303°
2026-05-04 04:19 57.36910 90.36260 32105 ft 409 kts 303°
2026-05-04 04:20 57.38531 90.31920 32319 ft 409 kts 303°
2026-05-04 04:20 57.40149 90.27585 32531 ft 409 kts 303°
2026-05-04 04:20 57.41768 90.23236 32750 ft 409 kts 303°
2026-05-04 04:20 57.43383 90.18875 32963 ft 410 kts 303°
2026-05-04 04:21 57.44995 90.14512 33162 ft 410 kts 303°
2026-05-04 04:21 57.46608 90.10146 33371 ft 410 kts 303°
2026-05-04 04:21 57.48223 90.05765 33578 ft 410 kts 303°
2026-05-04 04:21 57.49837 90.01384 33795 ft 411 kts 303°
2026-05-04 04:22 57.51425 89.97063 33982 ft 411 kts 303°
2026-05-04 04:22 57.53036 89.92672 34034 ft 408 kts 303°
2026-05-04 04:22 57.56224 89.83958 34027 ft 406 kts 303°
2026-05-04 04:23 57.59391 89.75251 34031 ft 406 kts 303°
2026-05-04 04:23 57.62561 89.66533 34032 ft 406 kts 303°
2026-05-04 04:24 57.65727 89.57787 34030 ft 406 kts 303°
2026-05-04 04:24 57.68876 89.49034 34031 ft 406 kts 302°
2026-05-04 04:25 57.72021 89.40249 34030 ft 406 kts 302°
2026-05-04 04:25 57.75185 89.31490 34027 ft 406 kts 303°
2026-05-04 04:26 57.78345 89.22794 34032 ft 406 kts 303°
2026-05-04 04:26 57.81518 89.14014 34030 ft 407 kts 303°
2026-05-04 04:27 57.84688 89.05207 34041 ft 407 kts 302°
2026-05-04 04:27 57.87847 88.96375 34042 ft 407 kts 302°
2026-05-04 04:28 57.90997 88.87511 34037 ft 408 kts 302°
2026-05-04 04:28 57.94151 88.78641 34044 ft 408 kts 302°
2026-05-04 04:29 57.97296 88.69751 34053 ft 408 kts 302°
2026-05-04 04:29 58.00435 88.60848 34050 ft 408 kts 302°
2026-05-04 04:30 58.03569 88.51942 34051 ft 408 kts 302°
2026-05-04 04:30 58.06706 88.43013 34049 ft 408 kts 302°
2026-05-04 04:31 58.09803 88.34132 34046 ft 407 kts 302°
2026-05-04 04:31 58.12904 88.25170 34044 ft 407 kts 302°
2026-05-04 04:32 58.16006 88.16177 34046 ft 408 kts 301°
2026-05-04 04:32 58.19109 88.07173 34046 ft 408 kts 301°
2026-05-04 04:33 58.22214 87.98144 34047 ft 408 kts 301°
2026-05-04 04:33 58.25309 87.89120 34045 ft 408 kts 301°
2026-05-04 04:34 58.28391 87.80079 34043 ft 408 kts 301°
2026-05-04 04:34 58.31479 87.71016 34041 ft 408 kts 301°
2026-05-04 04:35 58.34558 87.61929 34042 ft 409 kts 301°
2026-05-04 04:35 58.37612 87.52874 34042 ft 409 kts 301°
2026-05-04 04:36 58.40685 87.43738 34047 ft 409 kts 301°
2026-05-04 04:36 58.43753 87.34574 34047 ft 410 kts 301°
2026-05-04 04:37 58.49872 87.16168 34050 ft 411 kts 301°
2026-05-04 04:38 58.52925 87.06934 34057 ft 411 kts 301°
2026-05-04 04:38 58.55463 86.99258 34054 ft 411 kts 301°
2026-05-04 04:39 58.58516 86.89994 34055 ft 411 kts 301°
2026-05-04 04:39 58.61563 86.80700 34056 ft 411 kts 300°
2026-05-04 04:40 58.64558 86.71362 34053 ft 411 kts 298°
2026-05-04 04:40 58.67313 86.61736 34053 ft 411 kts 296°
2026-05-04 04:41 58.69940 86.51972 34058 ft 411 kts 296°
2026-05-04 04:41 58.72578 86.42220 34053 ft 411 kts 296°
2026-05-04 04:42 58.75251 86.32491 34050 ft 411 kts 297°
2026-05-04 04:42 58.77923 86.22759 34050 ft 411 kts 296°
2026-05-04 04:43 58.80562 86.13062 34048 ft 411 kts 296°
2026-05-04 04:43 58.83206 86.03295 34046 ft 411 kts 296°
2026-05-04 04:44 58.85845 85.93510 34037 ft 411 kts 296°
2026-05-04 04:44 58.88477 85.83706 34042 ft 411 kts 296°
2026-05-04 04:45 58.91099 85.73894 34040 ft 411 kts 296°
2026-05-04 04:47 59.00236 85.39376 34053 ft 412 kts 300°
2026-05-04 04:47 59.02831 85.29475 34049 ft 411 kts 300°
2026-05-04 04:48 59.05414 85.19579 34048 ft 410 kts 300°
2026-05-04 04:49 59.11817 84.94850 34053 ft 410 kts 300°
2026-05-04 04:49 59.14362 84.84920 34050 ft 409 kts 300°
2026-05-04 04:50 59.16909 84.74996 34050 ft 409 kts 300°
2026-05-04 04:50 59.19440 84.65076 34049 ft 408 kts 300°
2026-05-04 04:51 59.21955 84.55146 34047 ft 408 kts 300°
2026-05-04 04:51 59.24458 84.45214 34049 ft 407 kts 300°
2026-05-04 04:52 59.26950 84.35283 34045 ft 407 kts 300°
2026-05-04 04:52 59.29433 84.25346 34049 ft 406 kts 300°
2026-05-04 04:53 59.31916 84.15416 34049 ft 406 kts 300°
2026-05-04 04:53 59.34382 84.05479 34060 ft 405 kts 300°
2026-05-04 04:54 59.36840 83.95552 34056 ft 404 kts 300°
2026-05-04 04:54 59.39281 83.85620 34051 ft 404 kts 300°
2026-05-04 04:55 59.41696 83.75757 34048 ft 403 kts 300°
2026-05-04 04:55 59.44112 83.65820 34052 ft 403 kts 300°
2026-05-04 04:56 59.46518 83.55874 34046 ft 402 kts 300°
2026-05-04 04:56 59.48914 83.45943 34040 ft 402 kts 300°
2026-05-04 04:57 59.51304 83.35979 34039 ft 401 kts 300°
2026-05-04 04:57 59.53676 83.26038 34041 ft 401 kts 300°
2026-05-04 04:58 59.56050 83.16074 34039 ft 401 kts 300°
2026-05-04 04:58 59.58404 83.06155 34036 ft 401 kts 299°
2026-05-04 04:59 59.60760 82.96173 34031 ft 401 kts 299°
2026-05-04 04:59 59.63114 82.86171 34030 ft 401 kts 299°
2026-05-04 05:00 59.65452 82.76152 34025 ft 401 kts 299°
2026-05-04 05:01 59.68943 82.61087 34029 ft 401 kts 299°
2026-05-04 05:01 59.71271 82.51026 34028 ft 402 kts 299°
2026-05-04 05:02 59.73594 82.40953 34020 ft 402 kts 299°
2026-05-04 05:02 59.75902 82.30857 34022 ft 402 kts 299°
2026-05-04 05:03 59.78194 82.20805 34020 ft 402 kts 299°
2026-05-04 05:04 59.82774 82.00532 34015 ft 402 kts 298°
2026-05-04 05:04 59.85054 81.90359 34014 ft 403 kts 298°
2026-05-04 05:06 59.94122 81.49493 34012 ft 403 kts 298°
2026-05-04 05:07 59.96373 81.39226 34010 ft 404 kts 298°
2026-05-04 05:07 59.98610 81.28940 34014 ft 404 kts 298°
2026-05-04 05:09 60.08585 80.82572 34018 ft 403 kts 298°
2026-05-04 05:10 60.10777 80.72218 34024 ft 403 kts 297°
2026-05-04 05:10 60.12943 80.61908 34028 ft 403 kts 297°
2026-05-04 05:11 60.15125 80.51539 34025 ft 403 kts 297°
2026-05-04 05:11 60.17291 80.41169 34031 ft 403 kts 297°
2026-05-04 05:12 60.19452 80.30781 34030 ft 402 kts 297°
2026-05-04 05:12 60.21610 80.20408 34030 ft 402 kts 297°
2026-05-04 05:13 60.23758 80.10020 34030 ft 402 kts 297°
2026-05-04 05:13 60.25891 79.99636 34025 ft 401 kts 297°
2026-05-04 05:14 60.28013 79.89225 34024 ft 401 kts 297°
2026-05-04 05:14 60.30129 79.78824 34019 ft 401 kts 297°
2026-05-04 05:15 60.32238 79.68412 34015 ft 401 kts 297°
2026-05-04 05:15 60.34327 79.58002 34014 ft 400 kts 297°
2026-05-04 05:16 60.36411 79.47574 34010 ft 400 kts 296°
2026-05-04 05:16 60.38482 79.37210 34009 ft 400 kts 296°
2026-05-04 05:17 60.40548 79.26773 34000 ft 400 kts 296°
2026-05-04 05:17 60.42601 79.16325 34002 ft 400 kts 296°
2026-05-04 05:18 60.44653 79.05851 33999 ft 400 kts 296°
2026-05-04 05:18 60.46702 78.95374 33996 ft 400 kts 296°
2026-05-04 05:19 60.48733 78.84867 33994 ft 400 kts 296°
2026-05-04 05:19 60.50760 78.74357 33990 ft 400 kts 296°
2026-05-04 05:20 60.52780 78.63838 33981 ft 400 kts 295°
2026-05-04 05:20 60.54791 78.53310 33984 ft 400 kts 295°
2026-05-04 05:21 60.56788 78.42819 33979 ft 400 kts 295°
2026-05-04 05:21 60.58781 78.32262 33981 ft 400 kts 295°
2026-05-04 05:22 60.60765 78.21678 33979 ft 400 kts 295°
2026-05-04 05:22 60.62744 78.11080 33969 ft 400 kts 295°
2026-05-04 05:23 60.64714 78.00471 33969 ft 400 kts 295°
2026-05-04 05:23 60.66677 77.89838 33971 ft 400 kts 295°
2026-05-04 05:24 60.68633 77.79198 33972 ft 400 kts 294°
2026-05-04 05:24 60.70247 77.70359 33972 ft 400 kts 294°
2026-05-04 05:25 60.72222 77.59736 33966 ft 400 kts 296°
2026-05-04 05:25 60.74333 77.49235 33970 ft 399 kts 296°
2026-05-04 05:26 60.76458 77.38750 33962 ft 399 kts 296°
2026-05-04 05:28 60.86928 76.85355 33962 ft 400 kts 295°
2026-05-04 05:29 60.88994 76.74763 33963 ft 400 kts 295°
2026-05-04 05:29 60.91045 76.64155 33958 ft 400 kts 295°
2026-05-04 05:31 61.00599 76.23243 33955 ft 397 kts 301°
2026-05-04 05:32 61.03221 76.13239 33951 ft 397 kts 301°
2026-05-04 05:33 61.07147 75.98195 33940 ft 397 kts 301°
2026-05-04 05:33 61.09758 75.88150 33943 ft 397 kts 301°
2026-05-04 05:34 61.12348 75.78073 33933 ft 397 kts 300°
2026-05-04 05:34 61.14934 75.67971 33929 ft 397 kts 300°
2026-05-04 05:35 61.17526 75.57872 33923 ft 397 kts 300°
2026-05-04 05:35 61.20115 75.47751 33925 ft 398 kts 300°
2026-05-04 05:36 61.22687 75.37592 33922 ft 398 kts 300°
2026-05-04 05:36 61.25254 75.27399 33924 ft 398 kts 300°
2026-05-04 05:37 61.27811 75.17201 33922 ft 398 kts 300°
2026-05-04 05:37 61.30354 75.06963 33920 ft 399 kts 299°
2026-05-04 05:38 61.34103 74.91577 33920 ft 399 kts 299°
2026-05-04 05:38 61.36601 74.81248 33919 ft 399 kts 298°
2026-05-04 05:39 61.40341 74.65719 33915 ft 399 kts 298°
2026-05-04 05:40 61.44074 74.50142 33916 ft 400 kts 298°
2026-05-04 05:40 61.46550 74.39724 33912 ft 400 kts 298°
2026-05-04 05:41 61.49014 74.29286 33909 ft 400 kts 298°
2026-05-04 05:41 61.51114 74.18471 33903 ft 402 kts 291°
2026-05-04 05:42 61.52930 74.07390 33903 ft 402 kts 291°
2026-05-04 05:42 61.54742 73.96277 33904 ft 402 kts 291°
2026-05-04 05:43 61.56528 73.85232 33903 ft 403 kts 290°
2026-05-04 05:45 61.63637 73.40638 33895 ft 402 kts 290°
2026-05-04 05:47 61.70608 72.95837 33893 ft 403 kts 289°
2026-05-04 05:47 61.72317 72.84683 33897 ft 403 kts 289°
2026-05-04 05:48 61.74019 72.73435 33894 ft 403 kts 289°
2026-05-04 05:48 61.75715 72.62171 33898 ft 402 kts 289°
2026-05-04 05:49 61.77400 72.50902 33894 ft 402 kts 288°
2026-05-04 05:49 61.79075 72.39621 33894 ft 402 kts 288°
2026-05-04 05:51 61.85750 71.94475 33885 ft 402 kts 287°
2026-05-04 05:52 61.87389 71.83156 33880 ft 401 kts 287°
2026-05-04 05:52 61.89020 71.71844 33875 ft 402 kts 287°
2026-05-04 05:54 61.95440 71.26507 33868 ft 401 kts 286°
2026-05-04 05:55 61.97039 71.15140 33871 ft 401 kts 286°
2026-05-04 05:55 61.98624 71.03770 33865 ft 401 kts 286°
2026-05-04 05:56 62.00156 70.92358 33874 ft 401 kts 284°
2026-05-04 05:56 62.01485 70.80837 33861 ft 401 kts 283°
2026-05-04 05:57 62.02736 70.69269 33858 ft 400 kts 282°
2026-05-04 05:57 62.04003 70.57729 33854 ft 400 kts 283°
2026-05-04 05:58 62.05292 70.46187 33851 ft 400 kts 283°
2026-05-04 05:58 62.06575 70.34644 33845 ft 400 kts 282°
2026-05-04 05:59 62.07832 70.23177 33842 ft 400 kts 282°
2026-05-04 05:59 62.09086 70.11615 33839 ft 400 kts 282°
2026-05-04 06:00 62.10336 70.00036 33834 ft 400 kts 282°
2026-05-04 06:00 62.11364 69.90415 33832 ft 400 kts 282°
2026-05-04 06:01 62.12600 69.78826 33833 ft 400 kts 282°
2026-05-04 06:03 62.17405 69.32349 33832 ft 401 kts 281°
2026-05-04 06:05 62.22662 68.79819 33824 ft 401 kts 280°
2026-05-04 06:06 62.23799 68.68121 33826 ft 401 kts 280°
2026-05-04 06:06 62.24921 68.56401 33827 ft 401 kts 280°
2026-05-04 06:07 62.26030 68.44768 33823 ft 401 kts 280°
2026-05-04 06:07 62.27139 68.33050 33822 ft 400 kts 279°
2026-05-04 06:08 62.28235 68.21335 33824 ft 400 kts 279°
2026-05-04 06:08 62.29328 68.09607 33822 ft 400 kts 279°
2026-05-04 06:09 62.30413 67.97889 33825 ft 400 kts 279°
2026-05-04 06:11 62.34607 67.51046 33817 ft 399 kts 278°
2026-05-04 06:13 62.38647 67.03996 33804 ft 398 kts 278°
2026-05-04 06:14 62.42037 66.62891 33786 ft 399 kts 277°
2026-05-04 06:15 62.42983 66.51100 33790 ft 399 kts 277°
2026-05-04 06:15 62.43925 66.39298 33781 ft 399 kts 277°
2026-05-04 06:16 62.44855 66.27493 33785 ft 399 kts 277°
2026-05-04 06:16 62.45766 66.15672 33785 ft 399 kts 277°
2026-05-04 06:17 62.46661 66.03833 33781 ft 399 kts 274°
2026-05-04 06:17 62.46936 65.91910 33780 ft 397 kts 270°
2026-05-04 06:18 62.47154 65.79968 33779 ft 397 kts 270°
2026-05-04 06:20 62.47904 65.32312 33773 ft 397 kts 270°
2026-05-04 06:21 62.48287 65.02496 33774 ft 396 kts 269°
2026-05-04 06:22 62.48426 64.90582 33771 ft 396 kts 269°
2026-05-04 06:25 62.49688 64.07354 33751 ft 395 kts 269°
2026-05-04 06:26 62.49825 63.95477 33747 ft 395 kts 269°
2026-05-04 06:26 62.49953 63.83586 33750 ft 395 kts 269°
2026-05-04 06:27 62.50226 63.53865 33752 ft 395 kts 269°
2026-05-04 06:28 62.50319 63.41967 33754 ft 395 kts 268°
2026-05-04 06:28 62.50396 63.30098 33754 ft 394 kts 268°
2026-05-04 06:29 62.50466 63.18243 33747 ft 394 kts 268°
2026-05-04 06:29 62.50530 63.06383 33745 ft 394 kts 268°
2026-05-04 06:30 62.50578 62.94628 33741 ft 393 kts 268°
2026-05-04 06:30 62.50624 62.82800 33745 ft 393 kts 268°
2026-05-04 06:31 62.50661 62.70968 33743 ft 393 kts 268°
2026-05-04 06:31 62.50682 62.59146 33744 ft 392 kts 268°
2026-05-04 06:33 62.50654 62.12058 33751 ft 391 kts 267°
2026-05-04 06:34 62.50625 62.00308 33747 ft 390 kts 267°
2026-05-04 06:34 62.50592 61.88581 33743 ft 390 kts 267°
2026-05-04 06:36 62.50348 61.41657 33717 ft 390 kts 266°
2026-05-04 06:37 62.50260 61.29984 33715 ft 391 kts 266°
2026-05-04 06:37 62.50156 61.18230 33713 ft 391 kts 266°
2026-05-04 06:38 62.50047 61.06456 33709 ft 391 kts 265°
2026-05-04 06:40 62.49517 60.59403 33714 ft 391 kts 265°
2026-05-04 06:40 62.49356 60.47642 33718 ft 391 kts 265°
2026-05-04 06:41 62.49193 60.35895 33719 ft 391 kts 265°
2026-05-04 06:41 62.49014 60.24152 33726 ft 390 kts 265°
2026-05-04 06:42 62.48833 60.12442 33725 ft 389 kts 265°
2026-05-04 06:44 62.48000 59.65867 33726 ft 387 kts 264°
2026-05-04 06:44 62.47788 59.54246 33727 ft 387 kts 266°
2026-05-04 06:45 62.47764 59.42590 33722 ft 388 kts 267°
2026-05-04 06:45 62.47816 59.30926 33725 ft 388 kts 267°
2026-05-04 06:46 62.47820 59.19265 33720 ft 388 kts 266°
2026-05-04 06:46 62.47784 59.07676 33715 ft 388 kts 266°
2026-05-04 06:48 62.47543 58.60900 33721 ft 390 kts 266°
2026-05-04 06:50 62.47140 58.13884 33730 ft 392 kts 266°
2026-05-04 06:51 62.47024 58.02200 33729 ft 391 kts 266°
2026-05-04 06:51 62.46902 57.90446 33731 ft 391 kts 266°
2026-05-04 06:52 62.46757 57.78679 33727 ft 391 kts 266°
2026-05-04 06:52 62.46603 57.66932 33732 ft 391 kts 266°
2026-05-04 06:53 62.46437 57.55188 33730 ft 391 kts 266°
2026-05-04 06:53 62.46264 57.43447 33728 ft 391 kts 266°
2026-05-04 06:54 62.46075 57.31720 33725 ft 391 kts 265°
2026-05-04 06:54 62.45880 57.19982 33728 ft 390 kts 265°
2026-05-04 06:55 62.45685 57.08348 33719 ft 390 kts 265°
2026-05-04 06:55 62.45482 56.96632 33724 ft 390 kts 265°
2026-05-04 06:57 62.44587 56.51884 33711 ft 389 kts 265°
2026-05-04 06:58 62.44331 56.40225 33716 ft 388 kts 265°
2026-05-04 06:58 62.44068 56.28585 33705 ft 388 kts 265°
2026-05-04 06:59 62.43787 56.16954 33701 ft 388 kts 265°
2026-05-04 06:59 62.43497 56.05321 33700 ft 388 kts 265°
2026-05-04 07:01 62.42265 55.59006 33683 ft 387 kts 264°
2026-05-04 07:02 62.41927 55.47421 33689 ft 387 kts 264°
2026-05-04 07:02 62.41592 55.35850 33691 ft 386 kts 265°
2026-05-04 07:03 62.41241 55.24282 33687 ft 386 kts 264°
2026-05-04 07:03 62.40863 55.12737 33691 ft 386 kts 264°
2026-05-04 07:04 62.40501 55.01182 33682 ft 386 kts 264°
2026-05-04 07:04 62.40150 54.89608 33685 ft 386 kts 264°
2026-05-04 07:05 62.39786 54.78050 33681 ft 386 kts 264°
2026-05-04 07:05 62.39408 54.66559 33681 ft 386 kts 264°
2026-05-04 07:06 62.38817 54.49234 33688 ft 387 kts 264°
2026-05-04 07:07 62.38420 54.37665 33680 ft 387 kts 264°
2026-05-04 07:09 62.36697 53.91393 33684 ft 388 kts 264°
2026-05-04 07:09 62.36255 53.79812 33685 ft 388 kts 264°
2026-05-04 07:10 62.35817 53.68292 33688 ft 389 kts 264°
2026-05-04 07:12 62.33921 53.21843 33697 ft 390 kts 264°
2026-05-04 07:12 62.33424 53.10221 33695 ft 390 kts 264°
2026-05-04 07:13 62.32924 52.98581 33702 ft 391 kts 264°
2026-05-04 07:13 62.32412 52.86931 33703 ft 391 kts 263°
2026-05-04 07:14 62.31089 52.57800 33709 ft 392 kts 264°
2026-05-04 07:15 62.30551 52.46222 33713 ft 392 kts 263°
2026-05-04 07:15 62.29996 52.34572 33707 ft 392 kts 263°
2026-05-04 07:16 62.29427 52.22941 33713 ft 392 kts 263°
2026-05-04 07:16 62.28851 52.11294 33714 ft 392 kts 263°
2026-05-04 07:17 62.28256 51.99667 33711 ft 392 kts 263°
2026-05-04 07:17 62.27655 51.88037 33718 ft 392 kts 263°
2026-05-04 07:18 62.27052 51.76484 33719 ft 392 kts 263°
2026-05-04 07:18 62.26436 51.64856 33725 ft 392 kts 263°
2026-05-04 07:19 62.25813 51.53247 33723 ft 391 kts 263°
2026-05-04 07:19 62.25179 51.41654 33723 ft 391 kts 263°
2026-05-04 07:20 62.24526 51.30072 33728 ft 391 kts 263°
2026-05-04 07:20 62.23864 51.18486 33727 ft 391 kts 263°
2026-05-04 07:22 62.21156 50.72281 33735 ft 391 kts 263°
2026-05-04 07:23 62.20451 50.60742 33738 ft 390 kts 263°
2026-05-04 07:23 62.19750 50.49219 33741 ft 390 kts 263°
2026-05-04 07:24 62.19046 50.37693 33744 ft 390 kts 263°
2026-05-04 07:24 62.18328 50.26176 33746 ft 390 kts 263°
2026-05-04 07:26 62.15367 49.80333 33748 ft 389 kts 262°
2026-05-04 07:27 62.14610 49.68872 33750 ft 389 kts 262°
2026-05-04 07:27 62.13845 49.57430 33751 ft 389 kts 262°
2026-05-04 07:28 62.13060 49.45991 33752 ft 389 kts 262°
2026-05-04 07:28 62.12268 49.34563 33752 ft 388 kts 262°
2026-05-04 07:29 62.11475 49.23223 33752 ft 388 kts 262°
2026-05-04 07:29 62.10665 49.11829 33750 ft 388 kts 262°
2026-05-04 07:30 62.09764 49.00456 33751 ft 388 kts 261°
2026-05-04 07:30 62.08796 48.89119 33750 ft 388 kts 260°
2026-05-04 07:31 62.07827 48.77790 33756 ft 388 kts 261°
2026-05-04 07:33 62.03912 48.32437 33765 ft 389 kts 260°
2026-05-04 07:33 62.02918 48.21104 33769 ft 389 kts 260°
2026-05-04 07:34 62.01913 48.09762 33771 ft 390 kts 260°
2026-05-04 07:34 62.00891 47.98435 33775 ft 390 kts 260°
2026-05-04 07:35 61.99864 47.87192 33776 ft 390 kts 260°
2026-05-04 07:35 61.98823 47.75871 33781 ft 390 kts 260°
2026-05-04 07:36 61.97776 47.64549 33780 ft 390 kts 260°
2026-05-04 07:38 61.93496 47.19428 33789 ft 390 kts 259°
2026-05-04 07:38 61.92400 47.08144 33792 ft 391 kts 259°
2026-05-04 07:39 61.91304 46.96847 33798 ft 391 kts 259°
2026-05-04 07:39 61.90188 46.85553 33805 ft 391 kts 259°
2026-05-04 07:40 61.89002 46.74290 33800 ft 391 kts 258°
2026-05-04 07:40 61.87784 46.63046 33807 ft 391 kts 258°
2026-05-04 07:41 61.86565 46.51801 33799 ft 391 kts 258°
2026-05-04 07:41 61.85353 46.40639 33801 ft 391 kts 258°
2026-05-04 07:42 61.84131 46.29405 33800 ft 391 kts 258°
2026-05-04 07:42 61.82897 46.18188 33804 ft 391 kts 258°
2026-05-04 07:43 61.81649 46.06988 33805 ft 391 kts 258°
2026-05-04 07:43 61.80393 45.95785 33810 ft 391 kts 258°
2026-05-04 07:44 61.79132 45.84589 33807 ft 392 kts 258°
2026-05-04 07:44 61.77856 45.73393 33804 ft 392 kts 258°
2026-05-04 07:45 61.76571 45.62194 33804 ft 392 kts 258°
2026-05-04 07:45 61.75276 45.51003 33802 ft 393 kts 258°
2026-05-04 07:46 61.73973 45.39817 33810 ft 393 kts 258°
2026-05-04 07:46 61.72664 45.28703 33811 ft 393 kts 258°
2026-05-04 07:47 61.71333 45.17523 33809 ft 393 kts 258°
2026-05-04 07:49 61.68435 44.72089 33815 ft 392 kts 265°
2026-05-04 07:49 61.67881 44.60678 33820 ft 392 kts 265°
2026-05-04 07:50 61.67320 44.49270 33816 ft 391 kts 265°
2026-05-04 07:50 61.66751 44.37874 33824 ft 391 kts 265°
2026-05-04 07:51 61.66171 44.26562 33825 ft 391 kts 265°
2026-05-04 07:51 61.65579 44.15189 33829 ft 391 kts 265°
2026-05-04 07:52 61.64982 44.03806 33830 ft 391 kts 265°
2026-05-04 07:52 61.64388 43.92436 33830 ft 391 kts 265°
2026-05-04 07:54 61.61866 43.47092 33833 ft 390 kts 265°
2026-05-04 07:55 61.61211 43.35773 33835 ft 390 kts 265°
2026-05-04 07:55 61.60663 43.26370 33842 ft 390 kts 265°
2026-05-04 07:56 61.59889 43.13229 33844 ft 390 kts 265°
2026-05-04 07:56 61.59205 43.01937 33844 ft 390 kts 264°
2026-05-04 07:57 61.58627 42.92484 33837 ft 390 kts 264°
2026-05-04 07:57 61.57924 42.81199 33842 ft 390 kts 264°
2026-05-04 07:58 61.57224 42.70001 33841 ft 390 kts 264°
2026-05-04 07:58 61.56513 42.58733 33841 ft 390 kts 264°
2026-05-04 07:59 61.55785 42.47471 33842 ft 390 kts 264°
2026-05-04 07:59 61.55043 42.36218 33840 ft 390 kts 264°
2026-05-04 08:00 61.54307 42.24966 33840 ft 389 kts 264°
2026-05-04 08:02 61.51331 41.80029 33856 ft 389 kts 264°
2026-05-04 08:02 61.50568 41.68888 33855 ft 389 kts 264°
2026-05-04 08:03 61.49792 41.57686 33850 ft 389 kts 264°
2026-05-04 08:03 61.49004 41.46498 33857 ft 388 kts 264°
2026-05-04 08:04 61.48207 41.35316 33846 ft 388 kts 264°
2026-05-04 08:04 61.47415 41.24161 33843 ft 388 kts 264°
2026-05-04 08:05 61.46607 41.13019 33843 ft 387 kts 264°
2026-05-04 08:05 61.45778 41.01886 33854 ft 387 kts 264°
2026-05-04 08:06 61.44948 40.90761 33856 ft 387 kts 264°
2026-05-04 08:06 61.44109 40.79647 33858 ft 387 kts 263°
2026-05-04 08:08 61.40688 40.35401 33859 ft 386 kts 263°
2026-05-04 08:11 61.36660 39.85748 33860 ft 385 kts 263°
2026-05-04 08:11 61.35287 39.69242 33858 ft 385 kts 263°
2026-05-04 08:12 61.34351 39.58251 33860 ft 385 kts 263°
2026-05-04 08:12 61.33407 39.47276 33859 ft 385 kts 263°
2026-05-04 08:13 61.32468 39.36376 33859 ft 385 kts 263°
2026-05-04 08:13 61.31509 39.25422 33858 ft 384 kts 263°
2026-05-04 08:14 61.30542 39.14483 33862 ft 384 kts 262°
2026-05-04 08:16 61.26645 38.70885 33860 ft 382 kts 262°
2026-05-04 08:16 61.25652 38.60044 33865 ft 382 kts 262°
2026-05-04 08:17 61.24637 38.49212 33860 ft 381 kts 262°
2026-05-04 08:17 61.23255 38.38570 33852 ft 387 kts 250°
2026-05-04 08:19 61.14085 37.98406 33857 ft 384 kts 250°
2026-05-04 08:20 61.11793 37.88428 33859 ft 383 kts 250°
2026-05-04 08:20 61.09499 37.78499 33859 ft 382 kts 250°
2026-05-04 08:21 61.07192 37.68614 33859 ft 381 kts 250°
2026-05-04 08:21 61.04886 37.58764 33857 ft 380 kts 250°
2026-05-04 08:22 61.02586 37.48952 33858 ft 379 kts 250°
2026-05-04 08:24 60.93353 37.10059 33849 ft 376 kts 250°
2026-05-04 08:24 60.91042 37.00430 33852 ft 375 kts 250°
2026-05-04 08:25 60.88735 36.90897 33850 ft 375 kts 250°
2026-05-04 08:25 60.86545 36.81848 33849 ft 374 kts 250°
2026-05-04 08:27 60.77312 36.43759 33859 ft 372 kts 251°
2026-05-04 08:28 60.74999 36.34297 33857 ft 372 kts 251°
2026-05-04 08:28 60.72679 36.24861 33848 ft 371 kts 251°
2026-05-04 08:29 60.70360 36.15436 33854 ft 371 kts 251°
2026-05-04 08:31 60.61035 35.77991 33832 ft 371 kts 250°
2026-05-04 08:33 60.51581 35.40672 33830 ft 371 kts 250°
2026-05-04 08:35 60.44099 35.07656 33824 ft 362 kts 261°
2026-05-04 08:35 60.43488 35.02707 33828 ft 362 kts 261°
2026-05-04 08:35 60.42250 34.92809 33824 ft 363 kts 261°
2026-05-04 08:37 60.37835 34.58196 33836 ft 363 kts 260°
2026-05-04 08:38 60.36569 34.48371 33833 ft 364 kts 260°
2026-05-04 08:38 60.35284 34.38497 33830 ft 364 kts 260°
2026-05-04 08:40 60.30065 33.99038 33822 ft 364 kts 259°
2026-05-04 08:41 60.28745 33.89191 33820 ft 364 kts 259°
2026-05-04 08:41 60.27415 33.79346 33811 ft 364 kts 259°
2026-05-04 08:42 60.26076 33.69501 33813 ft 364 kts 258°
2026-05-04 08:42 60.24728 33.59670 33811 ft 364 kts 258°
2026-05-04 08:43 60.23378 33.49835 33807 ft 365 kts 258°
2026-05-04 08:43 60.22021 33.39996 33806 ft 365 kts 258°
2026-05-04 08:44 60.20644 33.30174 33800 ft 365 kts 258°
2026-05-04 08:46 60.15039 32.90548 31174 ft 362 kts 257°
2026-05-04 08:46 60.14344 32.85735 30734 ft 357 kts 257°
2026-05-04 08:46 60.13655 32.80976 30305 ft 352 kts 257°
2026-05-04 08:46 60.12971 32.76294 29880 ft 348 kts 256°
2026-05-04 08:47 60.12296 32.71673 29421 ft 343 kts 256°
2026-05-04 08:47 60.11630 32.67119 29021 ft 337 kts 256°
2026-05-04 08:47 60.10975 32.62644 28622 ft 332 kts 256°
2026-05-04 08:47 60.10332 32.58247 28248 ft 327 kts 256°
2026-05-04 08:48 60.09698 32.53911 27872 ft 322 kts 256°
2026-05-04 08:48 60.09072 32.49637 27508 ft 317 kts 256°
2026-05-04 08:48 60.08454 32.45429 27151 ft 312 kts 256°
2026-05-04 08:48 60.07843 32.41300 26801 ft 307 kts 256°
2026-05-04 08:49 60.07241 32.37234 26457 ft 304 kts 256°
2026-05-04 08:50 60.05698 32.11592 24184 ft 320 kts 267°
2026-05-04 08:50 60.05600 32.07148 23791 ft 319 kts 267°
2026-05-04 08:51 60.05500 32.02719 23372 ft 318 kts 267°
2026-05-04 08:51 60.05399 31.98311 22910 ft 316 kts 267°
2026-05-04 08:51 60.05296 31.93977 22528 ft 315 kts 267°
2026-05-04 08:51 60.05192 31.89619 22136 ft 313 kts 267°
2026-05-04 08:52 60.05088 31.85279 21742 ft 311 kts 267°
2026-05-04 08:52 60.04979 31.80965 21349 ft 310 kts 266°
2026-05-04 08:52 60.04869 31.76674 20959 ft 308 kts 266°
2026-05-04 08:52 60.04762 31.72404 20573 ft 307 kts 267°
2026-05-04 08:53 60.04655 31.68154 20188 ft 305 kts 266°
2026-05-04 08:54 60.03865 31.39004 17506 ft 295 kts 266°
2026-05-04 08:55 60.03740 31.34919 17129 ft 294 kts 265°
2026-05-04 08:55 60.03539 31.30866 16753 ft 292 kts 263°
2026-05-04 08:55 60.03287 31.26841 16378 ft 291 kts 262°
2026-05-04 08:55 60.03018 31.22843 16000 ft 290 kts 262°
2026-05-04 08:57 60.01234 30.95521 13424 ft 282 kts 262°
2026-05-04 09:01 59.97742 30.43247 8445 ft 259 kts 261°
2026-05-04 09:01 59.97496 30.39688 8105 ft 258 kts 261°
2026-05-04 09:01 59.97249 30.36147 7764 ft 257 kts 261°
2026-05-04 09:01 59.97001 30.32624 7442 ft 256 kts 261°
2026-05-04 09:02 59.96753 30.29106 7109 ft 255 kts 261°
2026-05-04 09:02 59.96507 30.25605 6776 ft 254 kts 261°
2026-05-04 09:02 59.96264 30.22157 6455 ft 254 kts 261°
2026-05-04 09:02 59.96018 30.18672 6123 ft 253 kts 261°
2026-05-04 09:03 59.95772 30.15205 5783 ft 252 kts 261°
2026-05-04 09:03 59.95525 30.11744 5452 ft 252 kts 261°
2026-05-04 09:03 59.95277 30.08286 5128 ft 251 kts 261°
2026-05-04 09:03 59.95027 30.04839 4805 ft 250 kts 261°
2026-05-04 09:04 59.94781 30.01442 4481 ft 245 kts 261°
2026-05-04 09:04 59.94540 29.98112 4161 ft 240 kts 260°
2026-05-04 09:04 59.94284 29.94852 3846 ft 234 kts 254°
2026-05-04 09:04 59.93571 29.92024 3599 ft 226 kts 229°
2026-05-04 09:05 59.92375 29.90165 3459 ft 216 kts 206°
2026-05-04 09:05 59.90940 29.89472 3299 ft 211 kts 183°
2026-05-04 09:05 59.89498 29.90004 3146 ft 214 kts 159°
2026-05-04 09:05 59.88215 29.91554 3045 ft 217 kts 148°
2026-05-04 09:06 59.86965 29.93225 2995 ft 216 kts 150°
2026-05-04 09:07 59.82918 30.11362 1475 ft 197 kts 109°
2026-05-04 09:08 59.82548 30.13885 1205 ft 183 kts 109°
2026-05-04 09:08 59.82204 30.16219 974 ft 167 kts 108°
2026-05-04 09:08 59.81889 30.18352 736 ft 154 kts 108°
2026-05-04 09:08 59.81597 30.20324 533 ft 145 kts 108°
2026-05-04 09:09 59.81318 30.22209 350 ft 140 kts 108°
2026-05-04 09:09 59.81044 30.24055 172 ft 139 kts 108°
2026-05-04 09:09 59.80865 30.25266 87 ft 137 kts 108°
2026-05-04 09:09 59.80624 30.26883 72 ft 105 kts 106°
2026-05-04 09:10 59.80482 30.27850 76 ft 18 kts 104°
2026-05-04 09:10 59.80450 30.27874 75 ft 3 kts 237°
2026-05-04 09:10 59.80436 30.27787 75 ft 12 kts 253°
2026-05-04 09:10 59.80409 30.27615 73 ft 13 kts 252°
2026-05-04 09:11 59.80380 30.27432 72 ft 15 kts 251°
2026-05-04 09:11 59.80351 30.27225 75 ft 16 kts 271°
2026-05-04 09:11 59.80378 30.26991 72 ft 18 kts 285°
2026-05-04 09:11 59.80394 30.26806 75 ft 0 kts 247°
2026-05-04 09:12 59.80378 30.26786 64 ft 10 kts 208°
2026-05-04 09:12 59.80272 30.26739 76 ft 17 kts 196°
2026-05-04 09:14 59.79963 30.26782 80 ft 0 kts 105°